Location: Beuvrequen
(50.8014°N, 1.6652°E)
Time: 11:11:49
(UTC+00:00)

Cosmos 1844 - Pass Details

Date: 04 June 2022
Orbit: 821 x 869 km, 70.9° (Epoch: 03 July)

Event Time Altitude Azimuth Distance (km) Brightness Sun altitude
Rises 20:33:45 0° 329° (NNW) 3,466 8.8 -4.7°
Reaches altitude 10° 20:36:13 10° 330° (NNW) 2,526 7.8 -5.0°
Maximum altitude 20:42:04 88° 59° (ENE) 876 3.8 -5.6°
Drops below altitude 10° 20:47:51 10° 151° (SSE) 2,499 5.5 -6.3°
Enters shadow 20:48:35 - 151° (SSE) 2,777 5.7 -6.3°
